Regional Weather Roundup
Issued by NWS

Home | Current Version | Previous Version | Graphics & Text | Print | Product List | Glossary On
Versions: 1 2 3 4 5 6 7 8 9 10 11 12 13 14 15 16 17 18 19 20 21 22 23 24 25 26 27 28 29 30 31 32 33 34 35 36 37 38 39 40 41 42 43 44 45 46 47 48 49 50
000
ASUS43 KTOP 150408
RWRKS

WEATHER ROUNDUP FOR KANSAS
NATIONAL WEATHER SERVICE GOODLAND KS
1100 PM CDT SUN SEP 14 2014

NOTE:  "FAIR" INDICATES FEW OR NO CLOUDS BELOW 12,000 FEET WITH NO
SIGNIFICANT WEATHER AND/OR OBSTRUCTIONS TO VISIBILITY.

KSZ001>006-013>018-027>032-041>047-150500-
NORTHWEST KANSAS

CITY           SKY/WX    TMP DP  RH WIND       PRES   REMARKS
GOODLAND       PTCLDY    62  56  80 E7        30.02S
HAYS           CLEAR     72  61  68 S17       29.94S
HILL CITY      PTCLDY    64  58  80 E9        29.95F
RUSSELL        CLEAR     71  60  68 S15       29.93F
$$

KSZ061>065-074>080-084>089-150500-
SOUTHWEST KANSAS

CITY           SKY/WX    TMP DP  RH WIND       PRES   REMARKS
DODGE CITY     CLEAR     70  58  65 S17       30.02S
ELKHART          N/A    N/A N/A N/A MISG        N/A
GARDEN CITY    PTCLDY    69  59  70 S13       30.00S
GREAT BEND     CLEAR     72  59  64 S20       29.98F
LIBERAL        PTCLDY    68  57  68 S12       30.07S
PRATT          CLEAR     68  57  68 S15       30.04S
$$

KSZ066>073-081>083-090>101-150500-
SOUTHEAST KANSAS

CITY           SKY/WX    TMP DP  RH WIND       PRES   REMARKS
CHANUTE        CLEAR     67  60  78 S13       30.09F
COFFEYVILLE    MOCLDY    69  62  78 S10       30.10S
HUTCHINSON     CLEAR     71  60  68 S16G23    30.02F
MEDICINE LODGE   N/A     69  60  73 S15       30.04S
NEWTON         CLEAR     70  57  64 S16       30.06S
PARSONS        PTCLDY    68  61  78 S6        30.11S
WICHITA INTL   PTCLDY    71  60  68 S16       30.05R
WICHITA JABRA  PTCLDY    69  61  75 S12       30.05R
WICHITA MCCONL PTCLDY    69  64  84 SW15      30.06R
WINFIELD       PTCLDY    68  62  81 S13       30.09S
$$

KSZ007>012-019>026-033>040-048>060-102>105-150500-
NORTHEAST KANSAS

CITY           SKY/WX    TMP DP  RH WIND       PRES   REMARKS
CONCORDIA      CLEAR     62  60  93 SE7       29.97F
EMPORIA        CLEAR     64  59  83 SE8       30.07S
LAWRENCE       PTCLDY    61  57  87 SE7       30.07F
MANHATTAN      PTCLDY    68  60  75 S10       30.01F
OLATHE IND     CLEAR     60  56  86 E5        30.10F
OLATHE EXE     CLEAR     61  56  83 SE5       30.10S
SALINA         CLEAR     72  60  66 S15       29.98F
TOPEKA BILLARD PTCLDY    65  59  81 SE7       30.05F
TOPEKA FORBES  PTCLDY    65  58  78 SE13      30.03F
$$


USA.gov is the U.S. government's official web portal to all federal, state and local government web resources and services.